Year,Month,Day,Hour,Minute,Value (Times are PST for temperature in C)
2017,08,05,00,00,19.10
2017,08,05,00,01,19.10
2017,08,05,00,02,19.10
2017,08,05,00,03,19.10
2017,08,05,00,04,19.10
2017,08,05,00,05,19.10
2017,08,05,00,06,19.10
2017,08,05,00,07,19.10
2017,08,05,00,08,19.10
2017,08,05,00,09,19.10
2017,08,05,00,10,19.10
2017,08,05,00,11,19.10
2017,08,05,00,12,19.10
2017,08,05,00,13,19.00
2017,08,05,00,14,19.00
2017,08,05,00,15,19.00
2017,08,05,00,16,19.00
2017,08,05,00,17,19.00
2017,08,05,00,18,19.00
2017,08,05,00,19,19.00
2017,08,05,00,20,19.00
2017,08,05,00,21,19.10
2017,08,05,00,22,19.10
2017,08,05,00,23,19.10
2017,08,05,00,24,19.10
2017,08,05,00,25,19.10
2017,08,05,00,26,19.10
2017,08,05,00,27,19.20
2017,08,05,00,28,19.20
2017,08,05,00,29,19.20
2017,08,05,00,30,19.20
2017,08,05,00,31,19.20
2017,08,05,00,32,19.20
2017,08,05,00,33,19.20
2017,08,05,00,34,19.20
2017,08,05,00,35,19.20
2017,08,05,00,36,19.20
2017,08,05,00,37,19.20
2017,08,05,00,38,19.20
2017,08,05,00,39,19.20
2017,08,05,00,40,19.20
2017,08,05,00,41,19.20
2017,08,05,00,42,19.20
2017,08,05,00,43,19.20
2017,08,05,00,44,19.20
2017,08,05,00,45,19.20
2017,08,05,00,46,19.20
2017,08,05,00,47,19.20
2017,08,05,00,48,19.20
2017,08,05,00,49,19.10
2017,08,05,00,50,19.10
2017,08,05,00,51,19.10
2017,08,05,00,52,19.10
2017,08,05,00,53,19.10
2017,08,05,00,54,19.00
2017,08,05,00,55,19.00
2017,08,05,00,56,18.90
2017,08,05,00,57,19.00
2017,08,05,00,58,19.00
2017,08,05,00,59,19.00
2017,08,05,01,00,19.00
2017,08,05,01,01,19.10
2017,08,05,01,02,19.10
2017,08,05,01,03,19.20
2017,08,05,01,04,19.20
2017,08,05,01,05,19.20
2017,08,05,01,06,19.20
2017,08,05,01,07,19.20
2017,08,05,01,08,19.20
2017,08,05,01,09,19.20
2017,08,05,01,10,19.20
2017,08,05,01,11,19.20
2017,08,05,01,12,19.30
2017,08,05,01,13,19.30
2017,08,05,01,14,19.30
2017,08,05,01,15,19.20
2017,08,05,01,16,19.20
2017,08,05,01,17,19.10
2017,08,05,01,18,19.10
2017,08,05,01,19,19.10
2017,08,05,01,20,19.10
2017,08,05,01,21,19.10
2017,08,05,01,22,19.10
2017,08,05,01,23,19.00
2017,08,05,01,24,19.00
2017,08,05,01,25,19.00
2017,08,05,01,26,18.90
2017,08,05,01,27,18.90
2017,08,05,01,28,18.90
2017,08,05,01,29,18.90
2017,08,05,01,30,18.80
2017,08,05,01,31,18.80
2017,08,05,01,32,18.80
2017,08,05,01,33,18.80
2017,08,05,01,34,18.80
2017,08,05,01,35,18.80
2017,08,05,01,36,18.80
2017,08,05,01,37,18.80
2017,08,05,01,38,18.70
2017,08,05,01,39,18.70
2017,08,05,01,40,18.70
2017,08,05,01,41,18.70
2017,08,05,01,42,18.60
2017,08,05,01,43,18.60
2017,08,05,01,44,18.60
2017,08,05,01,45,18.50
2017,08,05,01,46,18.50
2017,08,05,01,47,18.50
2017,08,05,01,48,18.40
2017,08,05,01,49,18.40
2017,08,05,01,50,18.40
2017,08,05,01,51,18.40
2017,08,05,01,52,18.40
2017,08,05,01,53,18.40
2017,08,05,01,54,18.40
2017,08,05,01,55,18.40
2017,08,05,01,56,18.40
2017,08,05,01,57,18.40
2017,08,05,01,58,18.40
2017,08,05,01,59,18.30
2017,08,05,02,00,18.30
2017,08,05,02,01,18.30
2017,08,05,02,02,18.30
2017,08,05,02,03,18.20
2017,08,05,02,04,18.20
2017,08,05,02,05,18.20
2017,08,05,02,06,18.10
2017,08,05,02,07,18.10
2017,08,05,02,08,18.10
2017,08,05,02,09,18.00
2017,08,05,02,10,18.00
2017,08,05,02,11,18.00
2017,08,05,02,12,17.90
2017,08,05,02,13,17.90
2017,08,05,02,14,17.90
2017,08,05,02,15,17.80
2017,08,05,02,16,17.80
2017,08,05,02,17,17.80
2017,08,05,02,18,17.80
2017,08,05,02,19,17.80
2017,08,05,02,20,17.80
2017,08,05,02,21,17.80
2017,08,05,02,22,17.80
2017,08,05,02,23,17.70
2017,08,05,02,24,17.70
2017,08,05,02,25,17.70
2017,08,05,02,26,17.70
2017,08,05,02,27,17.70
2017,08,05,02,28,17.70
2017,08,05,02,29,17.70
2017,08,05,02,30,17.60
2017,08,05,02,31,17.60
2017,08,05,02,32,17.60
2017,08,05,02,33,17.60
2017,08,05,02,34,17.60
2017,08,05,02,35,17.50
2017,08,05,02,36,17.50
2017,08,05,02,37,17.50
2017,08,05,02,38,17.50
2017,08,05,02,39,17.40
2017,08,05,02,40,17.40
2017,08,05,02,41,17.40
2017,08,05,02,42,17.40
2017,08,05,02,43,17.40
2017,08,05,02,44,17.40
2017,08,05,02,45,17.30
2017,08,05,02,46,17.40
2017,08,05,02,47,17.30
2017,08,05,02,48,17.30
2017,08,05,02,49,17.30
2017,08,05,02,50,17.30
2017,08,05,02,51,17.30
2017,08,05,02,52,17.30
2017,08,05,02,53,17.30
2017,08,05,02,54,17.30
2017,08,05,02,55,17.30
2017,08,05,02,56,17.30
2017,08,05,02,57,17.30
2017,08,05,02,58,17.30
2017,08,05,02,59,17.30
2017,08,05,03,00,17.30
2017,08,05,03,01,17.30
2017,08,05,03,02,17.30
2017,08,05,03,03,17.30
2017,08,05,03,04,17.30
2017,08,05,03,05,17.30
2017,08,05,03,06,17.30
2017,08,05,03,07,17.30
2017,08,05,03,08,17.30
2017,08,05,03,09,17.30
2017,08,05,03,10,17.30
2017,08,05,03,11,17.30
2017,08,05,03,12,17.30
2017,08,05,03,13,17.30
2017,08,05,03,14,17.30
2017,08,05,03,15,17.30
2017,08,05,03,16,17.30
2017,08,05,03,17,17.30
2017,08,05,03,18,17.30
2017,08,05,03,19,17.30
2017,08,05,03,20,17.30
2017,08,05,03,21,17.30
2017,08,05,03,22,17.30
2017,08,05,03,23,17.40
2017,08,05,03,24,17.40
2017,08,05,03,25,17.40
2017,08,05,03,26,17.40
2017,08,05,03,27,17.40
2017,08,05,03,28,17.40
2017,08,05,03,29,17.50
2017,08,05,03,30,17.50
2017,08,05,03,31,17.50
2017,08,05,03,32,17.50
2017,08,05,03,33,17.50
2017,08,05,03,34,17.50
2017,08,05,03,35,17.50
2017,08,05,03,36,17.50
2017,08,05,03,37,17.50
2017,08,05,03,38,17.50
2017,08,05,03,39,17.50
2017,08,05,03,40,17.60
2017,08,05,03,41,17.60
2017,08,05,03,42,17.60
2017,08,05,03,43,17.60
2017,08,05,03,44,17.50
2017,08,05,03,45,17.50
2017,08,05,03,46,17.40
2017,08,05,03,47,17.40
2017,08,05,03,48,17.30
2017,08,05,03,49,17.30
2017,08,05,03,50,17.20
2017,08,05,03,51,17.10
2017,08,05,03,52,17.10
2017,08,05,03,53,17.10
2017,08,05,03,54,17.00
2017,08,05,03,55,17.00
2017,08,05,03,56,16.90
2017,08,05,03,57,16.90
2017,08,05,03,58,16.80
2017,08,05,03,59,16.80
2017,08,05,04,00,16.80
2017,08,05,04,01,16.70
2017,08,05,04,02,16.70
2017,08,05,04,03,16.70
2017,08,05,04,04,16.70
2017,08,05,04,05,16.70
2017,08,05,04,06,16.70
2017,08,05,04,07,16.70
2017,08,05,04,08,16.70
2017,08,05,04,09,16.70
2017,08,05,04,10,16.70
2017,08,05,04,11,16.70
2017,08,05,04,12,16.70
2017,08,05,04,13,16.70
2017,08,05,04,14,16.80
2017,08,05,04,15,16.80
2017,08,05,04,16,16.80
2017,08,05,04,17,16.80
2017,08,05,04,18,16.80
2017,08,05,04,19,16.80
2017,08,05,04,20,16.80
2017,08,05,04,21,16.90
2017,08,05,04,22,16.90
2017,08,05,04,23,17.00
2017,08,05,04,24,17.00
2017,08,05,04,25,17.00
2017,08,05,04,26,17.00
2017,08,05,04,27,17.00
2017,08,05,04,28,17.00
2017,08,05,04,29,17.00
2017,08,05,04,30,17.00
2017,08,05,04,31,16.90
2017,08,05,04,32,16.90
2017,08,05,04,33,16.90
2017,08,05,04,34,16.90
2017,08,05,04,35,16.90
2017,08,05,04,36,16.90
2017,08,05,04,37,16.80
2017,08,05,04,38,16.90
2017,08,05,04,39,16.90
2017,08,05,04,40,16.90
2017,08,05,04,41,16.90
2017,08,05,04,42,16.80
2017,08,05,04,43,16.80
2017,08,05,04,44,16.80
2017,08,05,04,45,16.80
2017,08,05,04,46,16.80
2017,08,05,04,47,16.80
2017,08,05,04,48,16.80
2017,08,05,04,49,16.80
2017,08,05,04,50,16.80
2017,08,05,04,51,16.80
2017,08,05,04,52,16.80
2017,08,05,04,53,16.80
2017,08,05,04,54,16.80
2017,08,05,04,55,16.80
2017,08,05,04,56,16.80
2017,08,05,04,57,16.80
2017,08,05,04,58,16.80
2017,08,05,04,59,16.80
2017,08,05,05,00,16.80
2017,08,05,05,01,16.90
2017,08,05,05,02,17.00
2017,08,05,05,03,17.10
2017,08,05,05,04,17.20
2017,08,05,05,05,17.30
2017,08,05,05,06,17.30
2017,08,05,05,07,17.30
2017,08,05,05,08,17.30
2017,08,05,05,09,17.30
2017,08,05,05,10,17.20
2017,08,05,05,11,17.20
2017,08,05,05,12,17.20
2017,08,05,05,13,17.10
2017,08,05,05,14,17.10
2017,08,05,05,15,17.00
2017,08,05,05,16,16.90
2017,08,05,05,17,16.90
2017,08,05,05,18,16.80
2017,08,05,05,19,16.80
2017,08,05,05,20,16.70
2017,08,05,05,21,16.70
2017,08,05,05,22,16.60
2017,08,05,05,23,16.60
2017,08,05,05,24,16.60
2017,08,05,05,25,16.50
2017,08,05,05,26,16.50
2017,08,05,05,27,16.40
2017,08,05,05,28,16.40
2017,08,05,05,29,16.30
2017,08,05,05,30,16.30
2017,08,05,05,31,16.30
2017,08,05,05,32,16.20
2017,08,05,05,33,16.20
2017,08,05,05,34,16.20
2017,08,05,05,35,16.10
2017,08,05,05,36,16.10
2017,08,05,05,37,16.00
2017,08,05,05,38,16.00
2017,08,05,05,39,16.00
2017,08,05,05,40,15.90
2017,08,05,05,41,15.90
2017,08,05,05,42,15.90
2017,08,05,05,43,15.90
2017,08,05,05,44,15.90
2017,08,05,05,45,15.80
2017,08,05,05,46,15.80
2017,08,05,05,47,15.80
2017,08,05,05,48,15.80
2017,08,05,05,49,15.80
2017,08,05,05,50,15.80
2017,08,05,05,51,15.80
2017,08,05,05,52,15.80
2017,08,05,05,53,15.80
2017,08,05,05,54,15.90
2017,08,05,05,55,15.90
2017,08,05,05,56,16.00
2017,08,05,05,57,15.90
2017,08,05,05,58,15.90
2017,08,05,05,59,15.90
2017,08,05,06,00,15.90
2017,08,05,06,01,15.90
2017,08,05,06,02,15.80
2017,08,05,06,03,15.80
2017,08,05,06,04,15.80
2017,08,05,06,05,15.80
2017,08,05,06,06,15.80
2017,08,05,06,07,15.80
2017,08,05,06,08,15.80
2017,08,05,06,09,15.80
2017,08,05,06,10,15.80
2017,08,05,06,11,15.80
2017,08,05,06,12,15.80
2017,08,05,06,13,15.80
2017,08,05,06,14,15.70
2017,08,05,06,15,15.70
2017,08,05,06,16,15.70
2017,08,05,06,17,15.70
2017,08,05,06,18,15.70
2017,08,05,06,19,15.70
2017,08,05,06,20,15.70
2017,08,05,06,21,15.70
2017,08,05,06,22,15.70
2017,08,05,06,23,15.70
2017,08,05,06,24,15.70
2017,08,05,06,25,15.70
2017,08,05,06,26,15.70
2017,08,05,06,27,15.70
2017,08,05,06,28,15.80
2017,08,05,06,29,15.80
2017,08,05,06,30,15.80
2017,08,05,06,31,15.90
2017,08,05,06,32,15.90
2017,08,05,06,33,15.90
2017,08,05,06,34,15.90
2017,08,05,06,35,16.00
2017,08,05,06,36,16.00
2017,08,05,06,37,16.10
2017,08,05,06,38,16.10
2017,08,05,06,39,16.20
2017,08,05,06,40,16.20
2017,08,05,06,41,16.20
2017,08,05,06,42,16.20
2017,08,05,06,43,16.20
2017,08,05,06,44,16.20
2017,08,05,06,45,16.20
2017,08,05,06,46,16.20
2017,08,05,06,47,16.20
2017,08,05,06,48,16.20
2017,08,05,06,49,16.30
2017,08,05,06,50,16.30
2017,08,05,06,51,16.30
2017,08,05,06,52,16.30
2017,08,05,06,53,16.30
2017,08,05,06,54,16.40
2017,08,05,06,55,16.40
2017,08,05,06,56,16.40
2017,08,05,06,57,16.40
2017,08,05,06,58,16.40
2017,08,05,06,59,16.40
2017,08,05,07,00,16.40
2017,08,05,07,01,16.40
2017,08,05,07,02,16.40
2017,08,05,07,03,16.40
2017,08,05,07,04,16.40
2017,08,05,07,05,16.40
2017,08,05,07,06,16.40
2017,08,05,07,07,16.50
2017,08,05,07,08,16.50
2017,08,05,07,09,16.50
2017,08,05,07,10,16.60
2017,08,05,07,11,16.60
2017,08,05,07,12,16.60
2017,08,05,07,13,16.70
2017,08,05,07,14,16.70
2017,08,05,07,15,16.70
2017,08,05,07,16,16.80
2017,08,05,07,17,16.80
2017,08,05,07,18,16.80
2017,08,05,07,19,16.90
2017,08,05,07,20,16.90
2017,08,05,07,21,16.90
2017,08,05,07,22,16.90
2017,08,05,07,23,16.90
2017,08,05,07,24,17.00
2017,08,05,07,25,17.00
2017,08,05,07,26,17.00
2017,08,05,07,27,17.00
2017,08,05,07,28,17.00
2017,08,05,07,29,17.00
2017,08,05,07,30,17.00
2017,08,05,07,31,17.00
2017,08,05,07,32,16.90
2017,08,05,07,33,16.90
2017,08,05,07,34,16.90
2017,08,05,07,35,16.90
2017,08,05,07,36,16.90
2017,08,05,07,37,16.80
2017,08,05,07,38,16.80
2017,08,05,07,39,16.80
2017,08,05,07,40,16.80
2017,08,05,07,41,16.80
2017,08,05,07,42,16.80
2017,08,05,07,43,16.70
2017,08,05,07,44,16.70
2017,08,05,07,45,16.70
2017,08,05,07,46,16.70
2017,08,05,07,47,16.70
2017,08,05,07,48,16.70
2017,08,05,07,49,16.80
2017,08,05,07,50,16.80
2017,08,05,07,51,16.90
2017,08,05,07,52,16.90
2017,08,05,07,53,16.90
2017,08,05,07,54,17.00
2017,08,05,07,55,17.00
2017,08,05,07,56,17.10
2017,08,05,07,57,17.10
2017,08,05,07,58,17.10
2017,08,05,07,59,17.10
2017,08,05,08,00,17.10
2017,08,05,08,01,17.10
2017,08,05,08,02,17.20
2017,08,05,08,03,17.20
2017,08,05,08,04,17.20
2017,08,05,08,05,17.20
2017,08,05,08,06,17.20
2017,08,05,08,07,17.20
2017,08,05,08,08,17.20
2017,08,05,08,09,17.20
2017,08,05,08,10,17.20
2017,08,05,08,11,17.30
2017,08,05,08,12,17.30
2017,08,05,08,13,17.30
2017,08,05,08,14,17.30
2017,08,05,08,15,17.40
2017,08,05,08,16,17.40
2017,08,05,08,17,17.40
2017,08,05,08,18,17.40
2017,08,05,08,19,17.50
2017,08,05,08,20,17.50
2017,08,05,08,21,17.60
2017,08,05,08,22,17.60
2017,08,05,08,23,17.60
2017,08,05,08,24,17.70
2017,08,05,08,25,17.80
2017,08,05,08,26,17.80
2017,08,05,08,27,17.80
2017,08,05,08,28,17.90
2017,08,05,08,29,18.00
2017,08,05,08,30,18.00
2017,08,05,08,31,18.10
2017,08,05,08,32,18.20
2017,08,05,08,33,18.30
2017,08,05,08,34,18.30
2017,08,05,08,35,18.40
2017,08,05,08,36,18.40
2017,08,05,08,37,18.40
2017,08,05,08,38,18.50
2017,08,05,08,39,18.50
2017,08,05,08,40,18.60
2017,08,05,08,41,18.60
2017,08,05,08,42,18.60
2017,08,05,08,43,18.70
2017,08,05,08,44,18.80
2017,08,05,08,45,18.80
2017,08,05,08,46,18.90
2017,08,05,08,47,18.90
2017,08,05,08,48,18.90
2017,08,05,08,49,19.00
2017,08,05,08,50,19.00
2017,08,05,08,51,19.10
2017,08,05,08,52,19.10
2017,08,05,08,53,19.10
2017,08,05,08,54,19.10
2017,08,05,08,55,19.20
2017,08,05,08,56,19.20
2017,08,05,08,57,19.20
2017,08,05,08,58,19.20
2017,08,05,08,59,19.20
2017,08,05,09,00,19.20
2017,08,05,09,01,19.20
2017,08,05,09,02,19.20
2017,08,05,09,03,19.20
2017,08,05,09,04,19.30
2017,08,05,09,05,19.30
2017,08,05,09,06,19.30
2017,08,05,09,07,19.30
2017,08,05,09,08,19.30
2017,08,05,09,09,19.30
2017,08,05,09,10,19.30
2017,08,05,09,11,19.40
2017,08,05,09,12,19.40
2017,08,05,09,13,19.40
2017,08,05,09,14,19.40
2017,08,05,09,15,19.40
2017,08,05,09,16,19.40
2017,08,05,09,17,19.50
2017,08,05,09,18,19.50
2017,08,05,09,19,19.60
2017,08,05,09,20,19.60
2017,08,05,09,21,19.70
2017,08,05,09,22,19.70
2017,08,05,09,23,19.80
2017,08,05,09,24,19.80
2017,08,05,09,25,19.90
2017,08,05,09,26,19.90
2017,08,05,09,27,20.00
2017,08,05,09,28,20.00
2017,08,05,09,29,20.10
2017,08,05,09,30,20.10
2017,08,05,09,31,20.10
2017,08,05,09,32,20.10
2017,08,05,09,33,20.20
2017,08,05,09,34,20.20
2017,08,05,09,35,20.20
2017,08,05,09,36,20.20
2017,08,05,09,37,20.20
2017,08,05,09,38,20.20
2017,08,05,09,39,20.20
2017,08,05,09,40,20.20
2017,08,05,09,41,20.10
2017,08,05,09,42,20.10
2017,08,05,09,43,20.10
2017,08,05,09,44,20.10
2017,08,05,09,45,20.10
2017,08,05,09,46,20.10
2017,08,05,09,47,20.20
2017,08,05,09,48,20.20
2017,08,05,09,49,20.30
2017,08,05,09,50,20.30
2017,08,05,09,51,20.30
2017,08,05,09,52,20.30
2017,08,05,09,53,20.30
2017,08,05,09,54,20.30
2017,08,05,09,55,20.30
2017,08,05,09,56,20.30
2017,08,05,09,57,20.30
2017,08,05,09,58,20.30
2017,08,05,09,59,20.30
2017,08,05,10,00,20.30
2017,08,05,10,01,20.20
2017,08,05,10,02,20.30
2017,08,05,10,03,20.30
2017,08,05,10,04,20.40
2017,08,05,10,05,20.40
2017,08,05,10,06,20.40
2017,08,05,10,07,20.40
2017,08,05,10,08,20.40
2017,08,05,10,09,20.40
2017,08,05,10,10,20.50
2017,08,05,10,11,20.50
2017,08,05,10,12,20.60
2017,08,05,10,13,20.60
2017,08,05,10,14,20.60
2017,08,05,10,15,20.60
2017,08,05,10,16,20.70
2017,08,05,10,17,20.70
2017,08,05,10,18,20.70
2017,08,05,10,19,20.70
2017,08,05,10,20,20.70
2017,08,05,10,21,20.70
2017,08,05,10,22,20.70
2017,08,05,10,23,20.80
2017,08,05,10,24,20.90
2017,08,05,10,25,21.00
2017,08,05,10,26,21.20
2017,08,05,10,27,21.30
2017,08,05,10,28,21.30
2017,08,05,10,29,21.40
2017,08,05,10,30,21.40
2017,08,05,10,31,21.50
2017,08,05,10,32,21.60
2017,08,05,10,33,21.60
2017,08,05,10,34,21.60
2017,08,05,10,35,21.70
2017,08,05,10,36,21.70
2017,08,05,10,37,21.80
2017,08,05,10,38,21.80
2017,08,05,10,39,21.80
2017,08,05,10,40,21.80
2017,08,05,10,41,21.80
2017,08,05,10,42,21.80
2017,08,05,10,43,21.80
2017,08,05,10,44,21.80
2017,08,05,10,45,21.90
2017,08,05,10,46,21.90
2017,08,05,10,47,21.90
2017,08,05,10,48,22.00
2017,08,05,10,49,22.00
2017,08,05,10,50,22.00
2017,08,05,10,51,22.00
2017,08,05,10,52,22.00
2017,08,05,10,53,22.10
2017,08,05,10,54,22.10
2017,08,05,10,55,22.10
2017,08,05,10,56,22.20
2017,08,05,10,57,22.20
2017,08,05,10,58,22.20
2017,08,05,10,59,22.10
2017,08,05,11,00,22.00
2017,08,05,11,01,21.90
2017,08,05,11,02,21.80
2017,08,05,11,03,21.80
2017,08,05,11,04,21.80
2017,08,05,11,05,21.70
2017,08,05,11,06,21.80
2017,08,05,11,07,21.80
2017,08,05,11,08,21.60
2017,08,05,11,09,21.60
2017,08,05,11,10,21.50
2017,08,05,11,11,21.50
2017,08,05,11,12,21.40
2017,08,05,11,13,21.40
2017,08,05,11,14,21.30
2017,08,05,11,15,21.30
2017,08,05,11,16,21.30
2017,08,05,11,17,21.30
